This is the latest recevied weather packets stored in our database for station/object K9NZF-2. If no packets are shown the sender has not sent any weather packets the latest 1 day(s).
| Time | Temp. | Humidity | Pressure | Rain* | Wind** | Luminosity | Snow |
|---|---|---|---|---|---|---|---|
| 1777965071 | 12.78° C | 91% | 969 hPa | 5.33 mm | 0.45 m/s, 229° | - | - |
| 1777965006 | 12.78° C | 91% | 969 hPa | 5.59 mm | 0.45 m/s, 229° | - | - |
| 1777964958 | 12.78° C | 91% | 969 hPa | 5.59 mm | 0.45 m/s, 229° | - | - |
| 1777964884 | 12.78° C | 91% | 969 hPa | 5.59 mm | 0.45 m/s, 229° | - | - |
| 1777964827 | 12.78° C | 91% | 969 hPa | 5.59 mm | 0.45 m/s, 229° | - | - |
| 1777964763 | 12.78° C | 91% | 969.1 hPa | 5.59 mm | 0.45 m/s, 229° | - | - |
| 1777964704 | 12.78° C | 91% | 969.2 hPa | 5.33 mm | 0.45 m/s, 229° | - | - |
| 1777964647 | 12.78° C | 91% | 969.3 hPa | 5.33 mm | 0.45 m/s, 229° | - | - |
| 1777964582 | 12.78° C | 91% | 969.4 hPa | 5.33 mm | 0.45 m/s, 229° | - | - |
| 1777964523 | 12.78° C | 91% | 969.4 hPa | 5.33 mm | 0.45 m/s, 229° | - | - |
| 1777964464 | 12.78° C | 91% | 969.5 hPa | 5.08 mm | 0.45 m/s, 229° | - | - |
| 1777964403 | 12.78° C | 91% | 969.5 hPa | 5.08 mm | 0.45 m/s, 229° | - | - |
| 1777964347 | 13.33° C | 91% | 969.5 hPa | 4.83 mm | 0.45 m/s, 229° | - | - |
| 1777964282 | 13.33° C | 91% | 969.4 hPa | 4.83 mm | 0.45 m/s, 229° | - | - |
| 1777964225 | 13.33° C | 91% | 969.4 hPa | 4.83 mm | 0.45 m/s, 229° | - | - |
| 1777964162 | 13.33° C | 91% | 969.4 hPa | 4.57 mm | 0.45 m/s, 229° | - | - |
| 1777964102 | 13.33° C | 91% | 969.5 hPa | 4.32 mm | 0.45 m/s, 251° | - | - |
| 1777964043 | 13.33° C | 91% | 969.6 hPa | 4.32 mm | 0.89 m/s, 275° | - | - |
| 1777964017 | 13.33° C | 90% | 969.6 hPa | 4.32 mm | 0.45 m/s, 275° | - | - |
| 1777963924 | 13.33° C | 90% | 969.6 hPa | 4.06 mm | 0.89 m/s, 243° | - | - |
| 1777963865 | 13.33° C | 90% | 969.5 hPa | 4.06 mm | 0.89 m/s, 243° | - | - |
| 1777963807 | 13.33° C | 90% | 969.5 hPa | 4.32 mm | 0.89 m/s, 240° | - | - |
| 1777963744 | 13.33° C | 90% | 969.5 hPa | 4.06 mm | 0.89 m/s, 266° | - | - |
| 1777963682 | 13.33° C | 90% | 969.5 hPa | 4.06 mm | 0.45 m/s, 298° | - | - |
| 1777963623 | 13.33° C | 90% | 969.5 hPa | 4.06 mm | 0.45 m/s, 273° | - | - |
* Rain latest hour (hover to see other rain measurements)
** Current wind speed in m/s (hover to see current wind gust speed)